Wetbulb
73.23 74.40 73.37 73.03 72.92 72.86 72.55 72.62 73.13 73.54 73.82 73.83 73.82 73.95 74.07 73.95 73.71 73.59 73.52 73.34 72.92 72.63 72.34 72.40 72.54 72.69 73.19 72.67 72.20 71.36 70.79 70.10 69.79 69.21 68.61 69.51 70.02 69.62 69.35 69.04 69.45 69.14 69.13
73.14 74.02 72.39 73.00 72.66 72.59 72.81 72.81 73.09 73.29 73.44 73.47 73.51 73.60 73.50 73.60 73.41 73.21 73.02 72.60 72.32 72.27 72.52 72.21 72.34 72.27 72.38 71.85 71.18 70.32 69.66 69.29 69.46 69.50 69.72 69.55 69.62 69.30 69.13 68.98 68.84 69.23 69.20
71.23 73.11 73.44 72.54 73.01 72.90 73.12 73.24 73.17 73.02 73.09 73.14 73.32 73.29 73.21 73.24 72.96 72.84 72.57 72.52 72.65 72.46 72.19 71.89 71.75 71.60 71.41 70.77 70.08 69.73 69.41 69.51 69.17 69.35 69.74 70.38 70.34 69.69 68.18 68.64 69.02 69.18 68.67
72.84 73.26 72.69 71.94 72.75 72.89 73.12 73.26 73.18 72.85 72.62 72.60 72.97 73.09 73.19 73.14 72.92 72.84 72.89 73.09 73.14 72.64 72.11 71.76 71.64 71.29 71.04 70.03 69.71 69.41 68.80 68.41 68.32 69.02 69.46 69.23 69.83 69.13 67.96 68.93 68.63 68.50 67.81
71.09 71.87 71.41 70.30 71.75 73.05 73.29 72.99 72.73 72.64 72.50 72.34 72.30 72.45 72.37 72.45 72.57 72.74 72.64 72.56 72.82 73.04 72.44 72.06 71.62 71.02 70.51 69.60 69.17 69.25 68.34 68.05 68.45 68.39 69.50 69.39 70.05 69.12 68.15 68.47 67.96 67.99 67.66
71.23 70.70 68.60 68.52 69.84 71.53 72.19 72.36 72.12 71.86 71.96 72.20 72.14 72.34 72.57 72.35 72.13 72.08 72.14 72.11 72.47 72.87 72.72 72.20 71.78 70.84 70.27 69.70 68.41 69.16 68.67 68.36 68.53 69.25 69.47 68.90 69.54 69.18 68.14 67.72 67.55 66.74 66.23
69.71 70.11 69.61 66.97 67.51 68.81 69.77 70.00 70.55 71.14 71.36 71.43 71.42 71.65 71.81 71.99 72.02 71.53 71.52 71.64 72.02 72.36 72.27 71.91 71.53 70.99 70.06 69.88 69.08 68.53 68.74 68.39 67.83 68.64 68.86 69.24 69.81 69.82 68.82 67.79 67.03 66.28 65.93
67.94 68.68 68.91 67.51 66.40 65.72 65.34 66.24 67.00 67.94 68.84 69.53 70.16 70.43 70.71 70.76 71.27 71.55 71.65 71.62 71.58 71.62 71.87 71.78 71.74 70.73 70.23 69.71 69.34 68.90 67.95 67.18 68.10 68.20 69.07 68.67 69.39 69.76 69.06 67.89 67.36 67.10 66.51
64.99 65.22 66.08 67.55 68.43 64.57 63.51 63.95 65.09 65.04 65.57 65.78 65.97 66.73 67.85 69.08 69.32 70.67 71.07 71.30 71.60 71.41 71.42 71.30 71.15 70.62 69.70 69.14 68.79 68.13 67.53 67.50 67.98 67.52 68.54 68.66 69.85 69.36 69.52 68.59 67.72 67.56 67.33
61.71 62.01 62.16 63.17 63.90 66.05 67.14 62.95 64.02 64.85 64.57 65.12 66.09 65.56 66.43 68.23 68.78 69.35 69.69 69.60 69.56 69.94 70.39 70.53 70.22 69.89 69.40 68.21 67.69 67.53 66.97 67.08 67.79 67.63 68.15 69.05 69.64 69.57 69.72 69.40 68.38 68.11 67.24
58.54 59.20 59.88 60.20 60.90 61.85 62.51 62.85 64.42 64.76 65.07 65.35 64.71 64.47 66.84 68.69 68.44 68.32 66.70 66.75 67.86 69.01 69.35 69.39 69.38 69.15 68.62 67.71 67.21 66.93 66.80 68.37 68.14 67.93 68.24 67.25 69.48 69.21 69.21 70.02 68.42 68.17 67.66
55.95 56.02 57.64 58.47 59.14 59.98 58.81 60.88 61.54 61.40 62.63 62.26 60.62 61.84 63.85 66.18 66.08 66.18 66.88 65.90 67.23 67.45 68.03 68.37 68.79 68.48 68.43 70.62 69.88 67.08 68.70 69.55 68.18 67.99 67.96 67.43 69.43 69.18 68.88 69.99 68.98 68.24 67.97
54.53 54.90 55.68 56.95 57.96 58.60 58.60 58.80 58.58 59.11 59.89 59.96 59.41 59.55 60.84 60.63 60.53 60.70 62.01 63.02 65.72 66.90 67.28 67.93 67.48 69.84 69.82 70.33 70.18 69.28 69.79 70.34 69.12 68.12 68.07 67.05 68.98 69.55 69.21 69.84 69.73 68.52 68.42
53.75 54.02 54.60 55.97 56.70 57.50 57.66 57.32 57.47 57.29 57.99 57.96 57.58 57.94 57.84 57.65 57.88 57.91 58.65 59.48 60.35 60.64 61.28 62.81 64.86 67.10 68.06 68.16 69.69 69.57 70.41 69.90 70.14 69.30 68.20 65.70 67.51 69.26 69.57 69.60 70.16 69.29 68.64
52.63 53.33 54.00 55.09 55.74 56.16 56.62 56.86 56.71 56.61 56.55 57.34 56.90 56.85 56.59 56.02 55.93 56.36 57.46 57.88 57.71 57.74 57.99 58.86 59.97 61.89 63.53 65.11 67.01 66.89 68.80 68.60 70.07 70.55 70.35 64.42 65.40 67.93 69.26 69.69 70.28 69.68 69.17
52.18 52.45 53.37 53.85 54.88 55.39 55.39 56.02 55.83 55.79 56.11 56.04 55.88 55.74 55.75 54.90 54.87 54.75 56.03 56.30 56.07 56.33 57.10 57.36 58.11 58.40 59.01 61.12 62.35 64.28 63.91 66.59 68.69 69.78 70.50 69.82 63.58 65.48 67.38 69.15 70.28 70.54 70.16
51.78 52.35 52.17 52.48 54.10 54.42 54.57 54.77 54.76 54.61 54.82 54.56 54.61 55.36 54.47 54.40 53.99 54.09 54.64 54.78 54.77 55.44 56.30 56.42 56.08 56.41 56.31 56.71 56.97 58.34 61.28 61.46 63.12 67.35 69.55 70.70 67.99 62.61 64.46 66.50 68.10 69.38 69.93
51.61 51.43 52.21 51.93 52.96 53.55 53.80 54.10 53.99 54.08 54.08 53.88 53.79 53.79 53.63 53.56 53.42 53.02 53.46 53.45 53.42 53.98 54.17 54.66 54.11 53.58 53.62 53.74 54.72 55.18 56.16 58.71 60.04 63.29 64.98 68.85 69.59 69.77 63.45 64.07 65.66 67.25 68.45
51.08 50.94 51.08 51.71 51.64 52.47 53.14 53.66 53.86 53.97 53.11 53.13 53.16 52.49 52.51 52.69 52.49 52.12 52.54 52.28 52.89 52.52 53.01 52.52 52.19 52.27 51.76 52.10 52.38 53.20 54.63 54.95 56.89 58.25 60.87 63.93 68.61 68.64 69.07 63.43 62.94 64.18 66.10
50.89 50.73 50.78 50.63 50.80 51.45 51.95 52.68 52.74 52.11 52.26 52.46 51.80 51.37 51.83 51.65 51.53 51.34 51.52 51.37 51.37 50.67 50.73 50.75 50.18 50.35 49.88 50.49 50.99 50.93 53.28 53.75 55.67 57.27 59.75 62.22 64.40 68.08 68.68 68.90 66.25 64.71 62.83
50.04 49.43 49.15 49.14 49.71 50.04 49.43 48.97 49.33 48.80 50.08 50.44 50.55 50.82 50.40 50.62 50.29 50.23 49.91 49.81 49.80 48.61 48.81 49.34 48.67 47.95 47.57 49.34 48.04 48.84 49.40 52.26 54.91 56.58 57.98 59.64 60.80 63.43 67.44 68.72 68.30 67.95 65.44
48.70 48.38 48.22 48.37 48.62 48.60 48.80 48.74 49.06 48.92 49.37 49.58 49.79 49.93 49.70 49.11 49.08 48.85 48.71 47.97 47.66 47.12 47.28 47.11 46.76 45.33 45.46 46.71 44.76 44.30 44.25 46.88 51.84 51.59 52.43 55.27 54.85 58.03 58.11 65.91 68.11 67.96 67.98
48.07 47.67 47.47 47.86 47.82 48.00 48.36 48.65 48.66 49.11 49.03 47.92 47.84 48.03 48.24 48.41 47.93 48.08 47.69 47.28 46.81 46.36 44.59 43.95 44.02 41.91 39.88 43.04 44.95 42.69 40.25 40.48 43.16 47.59 49.15 51.32 52.71 50.56 52.55 54.07 57.93 66.95 67.40
47.99 47.96 47.77 47.45 47.29 47.40 47.88 47.21 46.47 45.49 44.44 45.78 46.48 47.34 47.31 48.21 47.62 47.53 47.34 46.89 46.42 45.56 41.88 40.65 41.54 40.48 40.65 39.19 42.03 43.87 43.80 43.17 38.54 37.61 44.89 47.52 49.73 51.44 53.27 55.70 56.20 58.20 66.04
48.24 47.91 47.56 47.28 46.72 46.98 46.88 46.55 45.67 44.79 44.95 45.76 46.03 45.66 46.54 46.93 47.41 46.78 46.55 45.40 45.10 44.69 41.39 40.00 40.03 40.08 41.66 40.07 40.20 41.27 41.14 42.76 43.64 41.47 38.64 42.47 46.58 49.27 51.56 51.97 52.67 53.70 55.81
48.03 47.74 47.43 46.53 45.84 46.21 46.03 45.68 44.89 43.73 43.32 43.48 44.05 43.78 44.42 45.12 45.33 44.63 44.60 44.60 43.43 42.37 39.22 39.16 40.21 40.83 39.92 39.30 39.69 39.18 38.50 38.08 38.09 39.03 38.62 39.13 40.40 44.43 48.97 51.51 52.15 54.69 55.02
MSLP
1010.71 1012.13 1013.28 1013.38 1013.47 1013.52 1013.51 1013.42 1013.43 1013.59 1013.63 1013.67 1013.71 1013.78 1013.78 1013.75 1013.63 1013.47 1013.38 1013.37 1013.40 1013.33 1013.32 1013.32 1013.32 1013.26 1013.17 1013.16 1013.23 1013.18 1013.31 1013.30 1013.14 1013.00 1012.82 1012.81 1012.81 1012.76 1012.87 1012.87 1012.73 1012.43 1012.74
1012.00 1012.61 1013.73 1013.78 1013.76 1013.83 1013.94 1013.94 1013.92 1013.89 1014.03 1014.07 1014.02 1014.02 1014.06 1014.05 1014.03 1013.94 1013.72 1013.67 1013.70 1013.47 1013.45 1013.49 1013.46 1013.47 1013.37 1013.36 1013.39 1013.34 1013.46 1013.50 1013.33 1013.14 1012.96 1013.08 1013.06 1012.89 1013.13 1013.06 1012.93 1012.91 1012.99
1013.29 1013.10 1013.44 1014.03 1014.12 1013.95 1013.96 1014.08 1014.24 1014.19 1014.20 1014.30 1014.37 1014.39 1014.47 1014.38 1014.38 1014.37 1014.06 1013.98 1013.85 1013.72 1013.60 1013.65 1013.65 1013.68 1013.60 1013.61 1013.59 1013.56 1013.68 1013.61 1013.50 1013.17 1012.82 1012.64 1012.37 1013.02 1013.29 1013.28 1013.20 1013.35 1013.40
1013.31 1013.68 1014.19 1014.47 1014.37 1014.41 1014.27 1014.32 1014.42 1014.33 1014.24 1014.36 1014.43 1014.48 1014.64 1014.61 1014.63 1014.61 1014.44 1014.38 1014.22 1014.06 1013.90 1013.78 1013.80 1013.88 1013.90 1013.93 1013.85 1013.78 1013.79 1013.70 1013.56 1013.13 1012.58 1012.40 1011.92 1013.34 1013.51 1013.48 1013.54 1013.74 1013.81
1014.03 1014.26 1014.88 1014.88 1014.89 1014.77 1014.69 1014.60 1014.68 1014.60 1014.56 1014.62 1014.53 1014.56 1014.57 1014.61 1014.64 1014.62 1014.63 1014.58 1014.42 1014.29 1014.15 1014.02 1014.08 1014.12 1014.09 1014.03 1013.99 1014.02 1013.94 1013.79 1013.57 1013.00 1011.91 1012.04 1012.14 1013.39 1013.66 1013.80 1013.81 1013.87 1013.94
1014.22 1014.96 1015.58 1015.46 1015.43 1015.23 1015.06 1014.90 1014.86 1014.87 1014.83 1014.87 1014.82 1014.78 1014.71 1014.70 1014.69 1014.61 1014.66 1014.56 1014.54 1014.40 1014.28 1014.15 1014.20 1014.27 1014.28 1014.26 1014.23 1014.15 1014.09 1013.96 1013.69 1012.39 1011.66 1011.99 1012.43 1013.51 1013.85 1013.99 1014.08 1014.19 1014.31
1014.78 1015.19 1015.76 1016.12 1016.04 1015.88 1015.70 1015.61 1015.46 1015.25 1015.16 1015.06 1015.04 1014.99 1014.93 1014.84 1014.75 1014.66 1014.63 1014.58 1014.49 1014.41 1014.36 1014.25 1014.24 1014.25 1014.28 1014.33 1014.25 1014.20 1014.09 1014.01 1013.61 1012.45 1011.42 1011.72 1012.27 1013.18 1013.73 1014.11 1014.24 1014.43 1014.59
1015.69 1015.76 1015.82 1016.29 1016.40 1016.37 1016.34 1016.23 1016.04 1015.85 1015.63 1015.54 1015.34 1015.22 1015.05 1014.93 1014.81 1014.68 1014.56 1014.48 1014.43 1014.31 1014.28 1014.19 1014.15 1014.17 1014.16 1014.28 1014.29 1014.19 1014.00 1014.01 1013.39 1012.21 1011.26 1011.36 1012.48 1012.90 1013.53 1013.98 1014.24 1014.47 1014.63
1016.51 1016.48 1016.50 1016.37 1016.27 1016.59 1016.71 1016.73 1016.55 1016.33 1016.17 1016.03 1015.87 1015.63 1015.29 1015.03 1014.86 1014.60 1014.48 1014.37 1014.27 1014.20 1014.19 1014.14 1014.02 1014.04 1014.08 1014.01 1014.05 1014.07 1014.04 1013.88 1013.63 1012.40 1011.11 1011.50 1012.30 1012.62 1013.14 1013.77 1014.05 1014.26 1014.55
1016.91 1017.03 1017.05 1016.90 1016.74 1016.34 1016.33 1016.91 1016.76 1016.67 1016.48 1016.24 1016.07 1015.82 1015.39 1014.97 1014.80 1014.53 1014.35 1014.60 1014.42 1014.29 1014.14 1014.02 1013.93 1013.79 1013.77 1013.74 1013.78 1013.74 1013.84 1013.84 1013.36 1012.50 1011.30 1011.19 1011.89 1012.46 1012.90 1013.44 1013.80 1014.02 1014.25
1017.04 1017.33 1017.53 1017.52 1017.26 1016.84 1016.56 1016.69 1016.51 1016.54 1016.41 1016.19 1016.11 1015.99 1015.35 1015.25 1015.11 1014.83 1014.90 1014.73 1014.58 1014.33 1014.01 1013.72 1013.63 1013.56 1013.65 1013.53 1013.25 1013.15 1013.12 1012.76 1012.19 1011.30 1010.63 1011.34 1011.67 1012.04 1012.57 1013.07 1013.54 1013.82 1014.00
1017.10 1017.40 1017.69 1017.90 1017.90 1017.17 1017.01 1017.03 1016.73 1016.70 1016.65 1016.71 1016.86 1016.45 1015.89 1015.34 1015.19 1014.97 1014.61 1014.54 1014.28 1014.13 1013.74 1013.70 1013.23 1013.06 1013.17 1012.45 1011.49 1011.89 1012.23 1011.63 1011.44 1010.78 1010.20 1010.98 1011.37 1011.74 1012.32 1012.68 1013.12 1013.52 1013.80
1017.64 1017.84 1017.92 1018.14 1018.12 1017.63 1017.52 1017.34 1017.18 1017.12 1017.04 1017.03 1017.25 1017.20 1016.56 1015.99 1015.90 1015.37 1014.72 1014.40 1013.91 1013.86 1013.74 1013.52 1013.53 1013.04 1012.74 1012.36 1011.63 1011.42 1010.82 1010.02 1009.97 1009.93 1009.69 1010.52 1010.89 1011.41 1011.98 1012.37 1012.66 1013.03 1013.36
1017.71 1018.02 1018.16 1018.33 1018.39 1018.24 1017.69 1017.70 1017.58 1017.45 1017.51 1017.40 1017.63 1017.83 1017.27 1016.63 1016.60 1016.19 1015.56 1015.02 1014.46 1014.14 1014.02 1013.58 1013.43 1013.20 1012.81 1012.66 1012.12 1011.32 1010.78 1010.26 1009.61 1009.29 1009.12 1009.87 1010.34 1010.80 1011.43 1011.96 1012.18 1012.44 1012.77
1018.12 1018.41 1018.61 1018.69 1018.74 1018.64 1018.48 1018.40 1018.33 1018.10 1018.10 1018.04 1018.07 1018.37 1018.21 1017.67 1017.55 1016.88 1016.24 1015.59 1015.23 1015.12 1014.66 1014.26 1013.60 1013.03 1012.85 1012.66 1012.40 1012.24 1011.38 1010.89 1010.02 1009.36 1008.91 1009.54 1009.73 1010.05 1010.61 1011.22 1011.60 1011.87 1012.19
1018.34 1018.73 1018.92 1019.01 1019.08 1019.03 1018.84 1018.85 1018.61 1018.71 1018.39 1018.39 1018.45 1018.87 1018.84 1018.55 1018.26 1017.55 1016.70 1016.22 1015.88 1015.90 1015.41 1014.94 1014.31 1013.66 1013.05 1012.61 1012.58 1012.37 1012.13 1011.49 1010.63 1009.55 1008.50 1008.09 1008.96 1009.18 1009.65 1010.23 1010.76 1011.00 1011.41
1018.50 1019.03 1019.11 1019.13 1019.38 1019.37 1019.27 1019.17 1019.00 1019.21 1018.93 1018.89 1018.91 1019.00 1019.32 1019.11 1018.79 1018.29 1017.25 1016.81 1016.65 1016.48 1015.87 1015.26 1014.78 1014.04 1013.47 1012.86 1012.44 1011.98 1011.97 1011.85 1011.28 1010.36 1009.25 1008.00 1007.66 1008.44 1008.73 1009.18 1009.69 1010.21 1010.42
1018.93 1019.34 1019.62 1019.74 1019.88 1019.70 1019.70 1019.50 1019.41 1019.56 1019.22 1019.23 1019.26 1019.30 1019.69 1019.45 1019.24 1018.72 1017.73 1017.44 1017.63 1016.81 1016.13 1015.65 1015.24 1014.78 1014.26 1013.62 1012.78 1012.10 1011.53 1011.07 1011.02 1010.51 1010.13 1009.07 1008.01 1007.13 1007.84 1008.20 1008.60 1009.14 1009.76
1019.39 1019.72 1019.99 1020.22 1020.18 1020.00 1019.94 1019.67 1019.61 1019.74 1019.54 1019.41 1019.50 1019.63 1019.94 1019.68 1019.60 1019.08 1018.19 1018.09 1017.97 1017.04 1016.51 1016.31 1016.05 1015.64 1014.93 1014.11 1013.25 1012.53 1011.86 1011.07 1010.18 1009.74 1009.80 1009.33 1008.35 1007.94 1007.04 1007.03 1007.48 1007.87 1008.41
1019.62 1019.96 1020.15 1020.31 1020.33 1020.07 1019.86 1019.53 1019.37 1019.47 1019.62 1019.66 1019.78 1020.05 1020.10 1019.95 1019.84 1019.39 1018.68 1018.58 1018.24 1017.77 1017.30 1017.17 1016.90 1016.46 1015.89 1014.73 1013.66 1012.98 1012.00 1011.15 1010.37 1009.49 1008.78 1008.61 1008.13 1007.73 1007.19 1006.52 1007.02 1007.23 1007.33
1019.63 1019.88 1020.25 1020.43 1020.49 1020.10 1019.97 1019.96 1019.88 1019.82 1019.76 1019.77 1019.95 1020.23 1020.32 1020.26 1020.18 1019.82 1019.39 1019.02 1018.75 1018.44 1018.18 1017.79 1017.40 1016.82 1016.21 1015.52 1014.43 1013.16 1012.15 1010.88 1009.86 1009.05 1008.51 1007.74 1007.46 1007.19 1006.53 1006.57 1006.13 1005.84 1006.15
1019.67 1019.94 1020.17 1020.44 1020.72 1020.61 1020.32 1020.46 1020.53 1020.31 1020.05 1020.09 1020.15 1020.18 1020.39 1020.54 1020.50 1020.15 1020.06 1019.68 1019.51 1019.04 1018.66 1018.52 1018.18 1017.62 1017.17 1016.74 1015.80 1014.73 1011.89 1010.79 1009.36 1010.29 1010.09 1008.95 1008.64 1008.10 1007.69 1006.56 1005.66 1005.37 1004.95
1019.65 1020.01 1020.14 1020.43 1020.77 1021.04 1020.96 1020.66 1020.56 1020.17 1019.96 1020.05 1020.27 1020.20 1020.48 1020.42 1020.50 1020.44 1020.26 1020.10 1019.83 1019.51 1019.38 1019.48 1019.11 1018.88 1018.18 1017.65 1016.97 1016.61 1014.62 1012.77 1012.44 1011.62 1010.57 1010.00 1009.19 1008.71 1007.95 1007.54 1006.62 1004.85 1004.56
1019.53 1020.13 1020.27 1020.56 1020.82 1021.18 1021.39 1021.09 1021.05 1020.78 1020.59 1020.72 1020.55 1020.44 1020.41 1020.30 1020.24 1020.26 1020.23 1020.17 1019.96 1019.74 1020.10 1020.12 1019.78 1019.39 1018.85 1018.04 1017.57 1016.96 1016.65 1015.84 1014.30 1011.49 1011.29 1010.76 1009.96 1008.72 1007.77 1006.89 1006.46 1005.77 1004.73
1019.18 1019.78 1020.25 1020.55 1020.92 1021.38 1021.57 1021.71 1021.46 1021.38 1021.28 1021.05 1020.96 1020.87 1020.58 1020.34 1020.27 1020.27 1020.41 1020.39 1020.23 1020.04 1020.44 1020.41 1019.99 1019.42 1019.10 1018.68 1017.93 1017.03 1016.41 1015.68 1014.84 1013.72 1011.01 1010.29 1009.98 1009.20 1008.18 1007.42 1006.47 1005.77 1004.83
1019.34 1019.82 1020.20 1020.41 1020.86 1021.35 1021.64 1021.82 1021.91 1021.89 1021.78 1021.45 1021.28 1021.14 1020.78 1020.69 1020.53 1020.80 1020.85 1020.58 1020.75 1020.69 1020.96 1020.65 1019.96 1019.50 1019.10 1018.69 1018.05 1017.60 1017.11 1016.37 1015.53 1014.62 1013.06 1011.73 1010.33 1009.36 1008.32 1007.15 1006.25 1005.41 1004.35
Wind_Speed
14 14 9 8 7 7 7 7 8 8 7 7 7 6 6 5 4 4 5 4 3 3 3 3 3 4 5 5 6 6 6 5 5 4 3 3 5 6 7 7 9 2 7
15 15 11 10 9 8 8 9 9 9 8 8 8 7 6 5 5 4 3 2 2 2 3 3 3 3 4 4 5 5 4 3 2 3 4 4 5 7 5 6 8 9 8
13 8 14 9 9 9 8 8 8 8 8 8 8 8 7 6 6 5 4 3 3 2 2 1 2 2 2 3 3 3 2 1 2 7 10 7 7 8 5 4 7 9 10
12 13 12 9 8 8 8 7 7 7 7 6 6 7 6 6 5 5 6 6 5 4 2 0 0 1 1 2 3 3 2 2 5 11 9 4 5 8 4 6 8 9 9
10 12 14 14 12 10 8 9 8 8 7 6 6 5 4 4 4 5 5 6 6 6 4 3 2 2 2 3 3 3 3 4 8 13 9 9 4 9 5 6 8 7 5
11 14 16 17 15 13 12 10 9 8 8 8 8 7 7 6 5 4 4 5 8 8 7 5 3 3 4 4 4 4 5 6 9 13 5 5 3 12 7 6 9 9 10
10 11 13 15 16 18 18 16 14 11 9 7 7 7 7 7 6 4 5 6 7 8 8 8 5 5 5 6 6 6 6 7 11 15 8 3 10 13 9 7 7 8 9
10 10 10 13 13 16 18 17 17 16 15 14 13 10 8 7 6 6 7 7 8 8 8 7 6 6 6 7 8 9 9 9 12 12 9 3 15 15 11 9 9 9 10
11 11 10 11 9 16 16 14 14 14 14 15 15 15 13 7 5 6 7 8 8 9 9 9 9 7 8 8 9 9 10 10 11 12 13 6 15 14 13 12 11 11 10
11 11 11 11 11 10 9 10 9 9 9 9 9 14 12 10 11 4 8 9 10 10 10 11 11 9 9 10 10 10 10 11 13 14 13 7 16 15 13 13 12 13 12
11 12 12 12 11 10 9 8 6 7 8 9 13 10 7 7 9 12 10 13 14 13 12 11 11 10 10 11 14 14 12 9 13 11 9 17 16 15 13 13 13 14 14
12 12 11 12 11 9 9 9 9 9 9 10 12 13 9 10 10 7 5 5 7 10 12 11 12 11 9 11 10 18 9 11 10 11 9 15 14 13 13 14 14 14 14
10 10 11 10 10 10 8 7 5 6 6 7 12 13 11 9 10 9 7 8 8 6 8 10 11 8 11 9 9 10 10 10 8 9 9 14 14 14 15 15 17 17 15
10 11 11 11 10 10 6 7 7 6 7 7 9 13 10 7 9 9 8 10 9 9 11 9 7 10 11 12 13 15 13 12 9 8 9 16 16 16 17 19 18 19 17
10 11 11 11 10 9 9 7 7 8 7 8 9 11 10 10 10 10 9 9 9 10 10 10 11 11 11 13 12 13 15 15 16 10 8 15 15 17 18 21 21 21 20
10 9 9 10 10 9 8 8 6 7 7 7 7 9 12 10 9 10 9 9 9 10 10 10 11 11 11 10 11 13 12 13 16 18 11 10 18 19 20 21 22 22 22
8 8 8 9 10 9 8 7 6 7 6 7 7 9 12 11 11 12 9 9 10 10 12 10 11 11 11 12 14 12 10 12 12 15 17 13 11 18 20 22 22 23 22
8 8 9 8 8 7 6 5 5 6 5 6 6 7 11 11 12 11 9 9 11 10 10 9 10 10 11 12 12 12 13 10 11 11 12 15 14 11 16 21 24 23 21
8 8 8 8 8 7 6 5 4 5 5 6 6 7 10 10 12 11 9 9 11 9 9 10 10 11 11 12 12 13 13 13 15 10 12 17 16 15 13 20 24 25 24
8 7 7 7 7 6 5 4 4 5 5 5 6 7 10 9 11 11 9 10 10 10 10 10 12 11 12 12 13 13 13 13 13 13 12 11 14 16 15 18 12 15 24
7 7 7 7 7 5 6 6 5 5 5 5 6 8 10 11 12 11 9 10 10 10 11 12 11 13 11 12 13 13 12 17 14 12 11 12 11 14 16 16 12 10 12
7 7 7 7 7 7 5 5 4 5 5 5 6 6 8 10 11 10 11 10 12 10 12 12 13 11 11 12 12 12 9 13 8 14 14 13 16 10 15 17 19 18 14
8 6 6 7 7 8 7 5 5 4 5 5 7 7 9 9 10 10 11 10 11 9 10 12 13 14 11 11 13 7 7 7 15 11 16 14 17 16 14 13 18 18 19
8 6 7 6 7 7 8 6 7 7 7 7 6 8 9 10 10 10 11 12 12 8 10 10 10 10 10 10 9 6 11 11 7 12 9 15 17 17 15 12 10 13 22
9 7 6 7 6 6 6 7 6 7 7 7 8 11 10 9 10 11 12 13 12 10 10 12 11 11 7 9 10 11 12 10 13 13 17 14 14 14 14 14 14 14 17
8 7 6 6 6 5 5 6 7 8 9 8 9 8 8 8 8 11 13 11 12 12 12 11 11 11 10 11 9 10 9 10 11 12 15 15 19 15 16 15 15 14 12
Wind_Direction
58 87 55 55 50 50 53 55 57 49 47 53 57 54 51 45 45 69 83 82 86 84 77 76 78 80 95 100 94 77 60 49 46 33 21 51 64 54 16 352 343 36 33
66 83 60 59 59 55 50 44 42 43 37 38 43 44 42 36 24 26 46 46 30 54 62 69 80 86 102 104 100 88 68 55 38 306 256 150 94 72 39 13 25 62 57
46 50 80 65 70 74 71 63 53 48 40 34 32 30 25 22 7 349 354 342 335 358 47 65 79 104 121 130 115 108 104 95 289 272 265 234 96 95 57 17 74 79 76
55 54 56 62 72 75 78 76 71 68 59 45 36 28 11 7 354 334 334 329 327 329 331 333 195 205 187 189 157 162 172 230 262 268 269 166 90 96 74 77 84 97 92
65 65 43 32 39 51 60 66 62 57 52 37 28 17 1 345 332 322 342 319 310 305 305 293 288 277 244 224 204 213 221 249 266 276 272 78 12 113 108 112 123 111 94
78 62 46 38 35 42 50 58 61 57 47 36 23 6 349 331 319 333 321 312 307 302 299 289 279 277 277 262 252 240 247 272 281 274 230 107 146 128 142 111 99 106 112
66 70 66 47 44 42 40 38 36 38 41 42 36 18 2 351 340 319 306 301 304 308 310 305 306 289 280 275 257 258 262 272 281 303 301 252 136 151 162 164 146 141 142
52 57 49 86 69 55 41 36 36 34 32 25 26 13 1 346 335 322 311 286 287 287 295 298 286 280 269 270 271 263 261 271 284 268 272 195 140 155 169 183 181 182 176
63 52 48 35 67 90 60 36 37 37 36 31 24 11 349 320 323 310 294 287 288 281 283 281 277 271 270 261 262 264 267 267 278 284 285 123 151 158 173 191 189 190 199
64 57 46 40 34 30 39 45 52 41 34 37 37 13 350 348 340 304 295 24 348 325 307 291 281 269 260 265 256 250 258 270 261 273 277 129 152 165 182 198 202 203 201
69 56 47 39 31 25 44 31 50 42 34 19 11 12 348 13 2 349 358 359 342 319 293 277 273 263 264 260 248 234 221 247 265 256 249 137 159 168 188 199 203 204 203
62 57 53 45 34 30 33 31 28 29 25 30 21 2 6 351 9 320 295 264 276 5 324 288 259 249 239 264 259 217 224 243 255 266 268 153 159 173 198 200 201 206 211
69 61 50 51 47 30 51 26 26 30 28 24 28 10 7 355 1 356 347 348 343 353 346 338 333 332 319 289 285 301 235 234 239 251 263 159 162 182 206 214 203 208 213
73 63 55 49 41 40 25 37 26 35 19 26 21 16 6 360 1 352 353 342 347 354 341 339 324 318 307 319 304 292 292 285 280 269 264 168 172 183 206 222 215 210 212
71 61 49 44 40 33 40 26 26 10 27 10 24 22 10 357 360 347 346 343 347 351 341 336 324 327 317 318 313 320 296 286 281 273 271 174 181 183 199 219 224 217 216
79 62 56 47 40 33 37 27 23 23 9 18 21 20 10 358 357 346 343 346 348 346 344 330 336 323 322 309 303 310 309 315 292 290 268 225 190 188 194 209 224 222 219
84 74 54 49 35 31 24 19 25 23 9 13 9 16 8 4 355 342 343 347 356 331 335 335 332 330 325 322 314 303 300 309 306 308 290 283 214 199 195 202 214 226 218
81 69 63 44 38 35 25 36 24 20 8 15 11 6 8 0 354 339 338 350 349 329 335 338 339 334 328 322 317 315 316 297 295 293 300 288 282 277 202 205 205 214 224
81 73 60 49 37 31 35 30 35 32 17 18 15 12 3 1 355 341 342 349 336 339 339 343 337 331 325 319 317 315 310 300 295 279 283 280 281 279 281 202 205 207 210
95 82 76 60 40 45 32 21 44 20 24 16 13 12 358 2 357 345 345 348 343 340 345 346 337 336 326 323 319 314 306 305 298 293 279 271 268 270 271 278 219 218 212
110 96 74 67 46 31 38 26 13 3 13 9 8 3 2 357 358 345 349 346 349 341 338 340 338 332 329 331 321 323 311 278 276 268 302 294 283 260 250 258 258 233 205
118 110 98 78 56 37 45 28 5 357 352 356 359 347 10 353 351 343 343 342 349 337 340 346 339 336 329 343 326 310 319 314 302 340 320 321 321 325 331 289 256 245 249
131 120 102 85 69 51 8 25 5 350 349 358 348 348 352 352 348 347 344 342 337 342 339 342 340 341 327 328 335 324 324 317 322 298 321 308 324 317 309 295 309 269 244
139 126 105 81 64 57 31 27 8 359 353 350 342 347 333 343 342 342 343 342 335 340 335 330 329 324 323 320 324 315 315 310 315 306 293 306 299 294 298 303 291 300 268
150 135 118 108 80 65 46 25 5 5 350 340 337 338 330 343 337 343 343 340 337 336 342 326 321 328 322 314 306 308 309 299 292 285 297 307 303 300 295 294 293 296 308
151 149 138 132 102 73 45 31 15 360 343 340 340 325 340 328 343 350 335 340 339 338 334 325 322 315 319 315 315 315 311 313 309 305 299 303 299 299 297 295 291 286 281